Year,Month,Day,Hour,Minute,Value (Times are PST for temperature in C)
2023,05,15,00,00,18.60
2023,05,15,00,01,18.50
2023,05,15,00,02,18.50
2023,05,15,00,03,18.40
2023,05,15,00,04,18.40
2023,05,15,00,05,18.40
2023,05,15,00,06,18.40
2023,05,15,00,07,18.40
2023,05,15,00,08,18.40
2023,05,15,00,09,18.40
2023,05,15,00,10,18.30
2023,05,15,00,11,18.30
2023,05,15,00,12,18.30
2023,05,15,00,13,18.30
2023,05,15,00,14,18.30
2023,05,15,00,15,18.30
2023,05,15,00,16,18.30
2023,05,15,00,17,18.30
2023,05,15,00,18,18.20
2023,05,15,00,19,18.20
2023,05,15,00,20,18.20
2023,05,15,00,21,18.10
2023,05,15,00,22,18.10
2023,05,15,00,23,18.10
2023,05,15,00,24,18.00
2023,05,15,00,25,18.00
2023,05,15,00,26,17.90
2023,05,15,00,27,17.90
2023,05,15,00,28,17.90
2023,05,15,00,29,17.80
2023,05,15,00,30,17.80
2023,05,15,00,31,17.80
2023,05,15,00,32,17.80
2023,05,15,00,33,17.80
2023,05,15,00,34,17.70
2023,05,15,00,35,17.70
2023,05,15,00,36,17.70
2023,05,15,00,37,17.70
2023,05,15,00,38,17.60
2023,05,15,00,39,17.60
2023,05,15,00,40,17.60
2023,05,15,00,41,17.60
2023,05,15,00,42,17.50
2023,05,15,00,43,17.50
2023,05,15,00,44,17.50
2023,05,15,00,45,17.50
2023,05,15,00,46,17.40
2023,05,15,00,47,17.40
2023,05,15,00,48,17.40
2023,05,15,00,49,17.40
2023,05,15,00,50,17.30
2023,05,15,00,51,17.30
2023,05,15,00,52,17.30
2023,05,15,00,53,17.30
2023,05,15,00,54,17.30
2023,05,15,00,55,17.30
2023,05,15,00,56,17.30
2023,05,15,00,57,17.20
2023,05,15,00,58,17.20
2023,05,15,00,59,17.20
2023,05,15,01,00,17.20
2023,05,15,01,01,17.20
2023,05,15,01,02,17.20
2023,05,15,01,03,17.20
2023,05,15,01,04,17.20
2023,05,15,01,05,17.20
2023,05,15,01,06,17.20
2023,05,15,01,07,17.10
2023,05,15,01,08,17.10
2023,05,15,01,09,17.00
2023,05,15,01,10,16.90
2023,05,15,01,11,16.90
2023,05,15,01,12,16.80
2023,05,15,01,13,16.80
2023,05,15,01,14,16.80
2023,05,15,01,15,16.70
2023,05,15,01,16,16.70
2023,05,15,01,17,16.70
2023,05,15,01,18,16.60
2023,05,15,01,19,16.60
2023,05,15,01,20,16.50
2023,05,15,01,21,16.50
2023,05,15,01,22,16.50
2023,05,15,01,23,16.40
2023,05,15,01,24,16.40
2023,05,15,01,25,16.40
2023,05,15,01,26,16.30
2023,05,15,01,27,16.30
2023,05,15,01,28,16.30
2023,05,15,01,29,16.20
2023,05,15,01,30,16.20
2023,05,15,01,31,16.20
2023,05,15,01,32,16.10
2023,05,15,01,33,16.10
2023,05,15,01,34,16.00
2023,05,15,01,35,16.00
2023,05,15,01,36,16.00
2023,05,15,01,37,16.00
2023,05,15,01,38,16.00
2023,05,15,01,39,15.90
2023,05,15,01,40,15.90
2023,05,15,01,41,15.90
2023,05,15,01,42,15.90
2023,05,15,01,43,15.90
2023,05,15,01,44,15.90
2023,05,15,01,45,15.90
2023,05,15,01,46,15.90
2023,05,15,01,47,15.90
2023,05,15,01,48,15.90
2023,05,15,01,49,15.90
2023,05,15,01,50,15.90
2023,05,15,01,51,16.00
2023,05,15,01,52,16.00
2023,05,15,01,53,16.00
2023,05,15,01,54,16.10
2023,05,15,01,55,16.10
2023,05,15,01,56,16.10
2023,05,15,01,57,16.10
2023,05,15,01,58,16.20
2023,05,15,01,59,16.10
2023,05,15,02,00,16.10
2023,05,15,02,01,16.10
2023,05,15,02,02,16.10
2023,05,15,02,03,16.10
2023,05,15,02,04,16.10
2023,05,15,02,05,16.10
2023,05,15,02,06,16.10
2023,05,15,02,07,16.20
2023,05,15,02,08,16.20
2023,05,15,02,09,16.30
2023,05,15,02,10,16.40
2023,05,15,02,11,16.40
2023,05,15,02,12,16.40
2023,05,15,02,13,16.40
2023,05,15,02,14,16.30
2023,05,15,02,15,16.30
2023,05,15,02,16,16.30
2023,05,15,02,17,16.20
2023,05,15,02,18,16.20
2023,05,15,02,19,16.20
2023,05,15,02,20,16.20
2023,05,15,02,21,16.20
2023,05,15,02,22,16.10
2023,05,15,02,23,16.10
2023,05,15,02,24,16.10
2023,05,15,02,25,16.10
2023,05,15,02,26,16.10
2023,05,15,02,27,16.10
2023,05,15,02,28,16.10
2023,05,15,02,29,16.20
2023,05,15,02,30,16.20
2023,05,15,02,31,16.20
2023,05,15,02,32,16.20
2023,05,15,02,33,16.30
2023,05,15,02,34,16.30
2023,05,15,02,35,16.30
2023,05,15,02,36,16.30
2023,05,15,02,37,16.30
2023,05,15,02,38,16.30
2023,05,15,02,39,16.30
2023,05,15,02,40,16.30
2023,05,15,02,41,16.30
2023,05,15,02,42,16.30
2023,05,15,02,43,16.30
2023,05,15,02,44,16.30
2023,05,15,02,45,16.30
2023,05,15,02,46,16.20
2023,05,15,02,47,16.20
2023,05,15,02,48,16.20
2023,05,15,02,49,16.20
2023,05,15,02,50,16.20
2023,05,15,02,51,16.20
2023,05,15,02,52,16.20
2023,05,15,02,53,16.20
2023,05,15,02,54,16.30
2023,05,15,02,55,16.30
2023,05,15,02,56,16.30
2023,05,15,02,57,16.30
2023,05,15,02,58,16.30
2023,05,15,02,59,16.30
2023,05,15,03,00,16.20
2023,05,15,03,01,16.20
2023,05,15,03,02,16.20
2023,05,15,03,03,16.10
2023,05,15,03,04,16.10
2023,05,15,03,05,16.00
2023,05,15,03,06,16.00
2023,05,15,03,07,16.00
2023,05,15,03,08,16.00
2023,05,15,03,09,16.00
2023,05,15,03,10,15.90
2023,05,15,03,11,15.90
2023,05,15,03,12,15.90
2023,05,15,03,13,15.90
2023,05,15,03,14,15.80
2023,05,15,03,15,15.80
2023,05,15,03,16,15.80
2023,05,15,03,17,15.80
2023,05,15,03,18,15.70
2023,05,15,03,19,15.70
2023,05,15,03,20,15.70
2023,05,15,03,21,15.60
2023,05,15,03,22,15.60
2023,05,15,03,23,15.60
2023,05,15,03,24,15.50
2023,05,15,03,25,15.50
2023,05,15,03,26,15.40
2023,05,15,03,27,15.40
2023,05,15,03,28,15.40
2023,05,15,03,29,15.40
2023,05,15,03,30,15.40
2023,05,15,03,31,15.40
2023,05,15,03,32,15.40
2023,05,15,03,33,15.40
2023,05,15,03,34,15.40
2023,05,15,03,35,15.40
2023,05,15,03,36,15.30
2023,05,15,03,37,15.40
2023,05,15,03,38,15.40
2023,05,15,03,39,15.40
2023,05,15,03,40,15.40
2023,05,15,03,41,15.40
2023,05,15,03,42,15.40
2023,05,15,03,43,15.50
2023,05,15,03,44,15.50
2023,05,15,03,45,15.50
2023,05,15,03,46,15.60
2023,05,15,03,47,15.60
2023,05,15,03,48,15.60
2023,05,15,03,49,15.70
2023,05,15,03,50,15.70
2023,05,15,03,51,15.70
2023,05,15,03,52,15.70
2023,05,15,03,53,15.70
2023,05,15,03,54,15.70
2023,05,15,03,55,15.70
2023,05,15,03,56,15.60
2023,05,15,03,57,15.60
2023,05,15,03,58,15.60
2023,05,15,03,59,15.60
2023,05,15,04,00,15.60
2023,05,15,04,01,15.60
2023,05,15,04,02,15.60
2023,05,15,04,03,15.60
2023,05,15,04,04,15.50
2023,05,15,04,05,15.50
2023,05,15,04,06,15.50
2023,05,15,04,07,15.50
2023,05,15,04,08,15.50
2023,05,15,04,09,15.50
2023,05,15,04,10,15.50
2023,05,15,04,11,15.50
2023,05,15,04,12,15.50
2023,05,15,04,13,15.50
2023,05,15,04,14,15.50
2023,05,15,04,15,15.50
2023,05,15,04,16,15.50
2023,05,15,04,17,15.60
2023,05,15,04,18,15.60
2023,05,15,04,19,15.60
2023,05,15,04,20,15.60
2023,05,15,04,21,15.70
2023,05,15,04,22,15.70
2023,05,15,04,23,15.70
2023,05,15,04,24,15.70
2023,05,15,04,25,15.70
2023,05,15,04,26,15.70
2023,05,15,04,27,15.70
2023,05,15,04,28,15.70
2023,05,15,04,29,15.70
2023,05,15,04,30,15.70
2023,05,15,04,31,15.70
2023,05,15,04,32,15.70
2023,05,15,04,33,15.70
2023,05,15,04,34,15.60
2023,05,15,04,35,15.60
2023,05,15,04,36,15.60
2023,05,15,04,37,15.50
2023,05,15,04,38,15.50
2023,05,15,04,39,15.50
2023,05,15,04,40,15.50
2023,05,15,04,41,15.50
2023,05,15,04,42,15.50
2023,05,15,04,43,15.60
2023,05,15,04,44,15.60
2023,05,15,04,45,15.60
2023,05,15,04,46,15.60
2023,05,15,04,47,15.60
2023,05,15,04,48,15.60
2023,05,15,04,49,15.50
2023,05,15,04,50,15.50
2023,05,15,04,51,15.60
2023,05,15,04,52,15.60
2023,05,15,04,53,15.70
2023,05,15,04,54,15.70
2023,05,15,04,55,15.70
2023,05,15,04,56,15.70
2023,05,15,04,57,15.70
2023,05,15,04,58,15.80
2023,05,15,04,59,15.80
2023,05,15,05,00,15.80
2023,05,15,05,01,15.90
2023,05,15,05,02,15.90
2023,05,15,05,03,15.90
2023,05,15,05,04,15.80
2023,05,15,05,05,15.80
2023,05,15,05,06,15.80
2023,05,15,05,07,15.90
2023,05,15,05,08,15.90
2023,05,15,05,09,15.90
2023,05,15,05,10,15.80
2023,05,15,05,11,15.80
2023,05,15,05,12,15.90
2023,05,15,05,13,15.90
2023,05,15,05,14,15.80
2023,05,15,05,15,15.80
2023,05,15,05,16,15.80
2023,05,15,05,17,15.80
2023,05,15,05,18,15.80
2023,05,15,05,19,15.80
2023,05,15,05,20,15.80
2023,05,15,05,21,15.80
2023,05,15,05,22,15.80
2023,05,15,05,23,15.80
2023,05,15,05,24,15.90
2023,05,15,05,25,15.90
2023,05,15,05,26,15.90
2023,05,15,05,27,16.00
2023,05,15,05,28,16.00
2023,05,15,05,29,16.10
2023,05,15,05,30,16.10
2023,05,15,05,31,16.30
2023,05,15,05,32,16.30
2023,05,15,05,33,16.40
2023,05,15,05,34,16.50
2023,05,15,05,35,16.60
2023,05,15,05,36,16.70
2023,05,15,05,37,16.60
2023,05,15,05,38,16.60
2023,05,15,05,39,16.60
2023,05,15,05,40,16.70
2023,05,15,05,41,16.70
2023,05,15,05,42,16.70
2023,05,15,05,43,16.70
2023,05,15,05,44,16.60
2023,05,15,05,45,16.60
2023,05,15,05,46,16.60
2023,05,15,05,47,16.60
2023,05,15,05,48,16.50
2023,05,15,05,49,16.50
2023,05,15,05,50,16.50
2023,05,15,05,51,16.40
2023,05,15,05,52,16.40
2023,05,15,05,53,16.40
2023,05,15,05,54,16.40
2023,05,15,05,55,16.30
2023,05,15,05,56,16.30
2023,05,15,05,57,16.30
2023,05,15,05,58,16.30
2023,05,15,05,59,16.30
2023,05,15,06,00,16.30
2023,05,15,06,01,16.30
2023,05,15,06,02,16.30
2023,05,15,06,03,16.20
2023,05,15,06,04,16.20
2023,05,15,06,05,16.20
2023,05,15,06,06,16.20
2023,05,15,06,07,16.10
2023,05,15,06,08,16.10
2023,05,15,06,09,16.10
2023,05,15,06,10,16.10
2023,05,15,06,11,16.10
2023,05,15,06,12,16.10
2023,05,15,06,13,16.10
2023,05,15,06,14,16.10
2023,05,15,06,15,16.10
2023,05,15,06,16,16.10
2023,05,15,06,17,16.10
2023,05,15,06,18,16.10
2023,05,15,06,19,16.10
2023,05,15,06,20,16.00
2023,05,15,06,21,16.00
2023,05,15,06,22,16.00
2023,05,15,06,23,16.00
2023,05,15,06,24,16.00
2023,05,15,06,25,15.90
2023,05,15,06,26,15.90
2023,05,15,06,27,16.00
2023,05,15,06,28,16.00
2023,05,15,06,29,16.00
2023,05,15,06,30,16.00
2023,05,15,06,31,16.10
2023,05,15,06,32,16.10
2023,05,15,06,33,16.10
2023,05,15,06,34,16.10
2023,05,15,06,35,16.10
2023,05,15,06,36,16.10
2023,05,15,06,37,16.10
2023,05,15,06,38,16.10
2023,05,15,06,39,16.10
2023,05,15,06,40,16.20
2023,05,15,06,41,16.20
2023,05,15,06,42,16.30
2023,05,15,06,43,16.30
2023,05,15,06,44,16.40
2023,05,15,06,45,16.40
2023,05,15,06,46,16.50
2023,05,15,06,47,16.50
2023,05,15,06,48,16.60
2023,05,15,06,49,16.70
2023,05,15,06,50,16.70
2023,05,15,06,51,16.80
2023,05,15,06,52,16.80
2023,05,15,06,53,16.80
2023,05,15,06,54,16.80
2023,05,15,06,55,16.90
2023,05,15,06,56,16.90
2023,05,15,06,57,16.90
2023,05,15,06,58,17.00
2023,05,15,06,59,17.00
2023,05,15,07,00,17.10
2023,05,15,07,01,17.20
2023,05,15,07,02,17.20
2023,05,15,07,03,17.20
2023,05,15,07,04,17.20
2023,05,15,07,05,17.30
2023,05,15,07,06,17.40
2023,05,15,07,07,17.40
2023,05,15,07,08,17.60
2023,05,15,07,09,17.80
2023,05,15,07,10,17.90
2023,05,15,07,11,18.10
2023,05,15,07,12,18.20
2023,05,15,07,13,18.30
2023,05,15,07,14,18.40
2023,05,15,07,15,18.50
2023,05,15,07,16,18.50
2023,05,15,07,17,18.50
2023,05,15,07,18,18.50
2023,05,15,07,19,18.50
2023,05,15,07,20,18.50
2023,05,15,07,21,18.50
2023,05,15,07,22,18.50
2023,05,15,07,23,18.40
2023,05,15,07,24,18.40
2023,05,15,07,25,18.40
2023,05,15,07,26,18.50
2023,05,15,07,27,18.60
2023,05,15,07,28,18.70
2023,05,15,07,29,18.70
2023,05,15,07,30,18.70
2023,05,15,07,31,18.70
2023,05,15,07,32,18.70
2023,05,15,07,33,18.80
2023,05,15,07,34,18.80
2023,05,15,07,35,18.80
2023,05,15,07,36,18.90
2023,05,15,07,37,19.00
2023,05,15,07,38,19.00
2023,05,15,07,39,19.10
2023,05,15,07,40,19.10
2023,05,15,07,41,19.10
2023,05,15,07,42,19.10
2023,05,15,07,43,19.20
2023,05,15,07,44,19.20
2023,05,15,07,45,19.30
2023,05,15,07,46,19.30
2023,05,15,07,47,19.40
2023,05,15,07,48,19.50
2023,05,15,07,49,19.60
2023,05,15,07,50,19.80
2023,05,15,07,51,19.90
2023,05,15,07,52,20.10
2023,05,15,07,53,20.30
2023,05,15,07,54,20.50
2023,05,15,07,55,20.60
2023,05,15,07,56,20.80
2023,05,15,07,57,20.90
2023,05,15,07,58,21.00
2023,05,15,07,59,21.10
2023,05,15,08,00,21.20
2023,05,15,08,01,21.30
2023,05,15,08,02,21.30
2023,05,15,08,03,21.50
2023,05,15,08,04,21.60
2023,05,15,08,05,21.70
2023,05,15,08,06,21.80
2023,05,15,08,07,21.80
2023,05,15,08,08,21.90
2023,05,15,08,09,22.10
2023,05,15,08,10,22.10
2023,05,15,08,11,22.20
2023,05,15,08,12,22.30
2023,05,15,08,13,22.40
2023,05,15,08,14,22.50
2023,05,15,08,15,22.60
2023,05,15,08,16,22.70
2023,05,15,08,17,22.80
2023,05,15,08,18,22.80
2023,05,15,08,19,22.80
2023,05,15,08,20,22.80
2023,05,15,08,21,22.80
2023,05,15,08,22,22.90
2023,05,15,08,23,23.00
2023,05,15,08,24,23.00
2023,05,15,08,25,23.10
2023,05,15,08,26,23.20
2023,05,15,08,27,23.20
2023,05,15,08,28,23.30
2023,05,15,08,29,23.30
2023,05,15,08,30,23.40
2023,05,15,08,31,23.50
2023,05,15,08,32,23.60
2023,05,15,08,33,23.70
2023,05,15,08,34,23.80
2023,05,15,08,35,23.80
2023,05,15,08,36,23.90
2023,05,15,08,37,23.90
2023,05,15,08,38,24.00
2023,05,15,08,39,24.00
2023,05,15,08,40,24.10
2023,05,15,08,41,24.10
2023,05,15,08,42,24.00
2023,05,15,08,43,23.90
2023,05,15,08,44,23.90
2023,05,15,08,45,23.90
2023,05,15,08,46,24.00
2023,05,15,08,47,24.00
2023,05,15,08,48,24.10
2023,05,15,08,49,24.20
2023,05,15,08,50,24.30
2023,05,15,08,51,24.30
2023,05,15,08,52,24.40
2023,05,15,08,53,24.40
2023,05,15,08,54,24.50
2023,05,15,08,55,24.50
2023,05,15,08,56,24.60
2023,05,15,08,57,24.70
2023,05,15,08,58,24.80
2023,05,15,08,59,24.90
2023,05,15,09,00,25.00
2023,05,15,09,01,25.10
2023,05,15,09,02,25.10
2023,05,15,09,03,25.30
2023,05,15,09,04,25.30
2023,05,15,09,05,25.30
2023,05,15,09,06,25.30
2023,05,15,09,07,25.30
2023,05,15,09,08,25.30
2023,05,15,09,09,25.30
2023,05,15,09,10,25.40
2023,05,15,09,11,25.40
2023,05,15,09,12,25.50
2023,05,15,09,13,25.50
2023,05,15,09,14,25.60
2023,05,15,09,15,25.60
2023,05,15,09,16,25.60
2023,05,15,09,17,25.60
2023,05,15,09,18,25.60
2023,05,15,09,19,25.60
2023,05,15,09,20,25.50
2023,05,15,09,21,25.50
2023,05,15,09,22,25.40
2023,05,15,09,23,25.30
2023,05,15,09,24,25.30
2023,05,15,09,25,25.20
2023,05,15,09,26,25.20
2023,05,15,09,27,25.10
2023,05,15,09,28,25.10
2023,05,15,09,29,25.20
2023,05,15,09,30,25.20
2023,05,15,09,31,25.20
2023,05,15,09,32,25.20
2023,05,15,09,33,25.30
2023,05,15,09,34,25.30
2023,05,15,09,35,25.30
2023,05,15,09,36,25.30
2023,05,15,09,37,25.30
2023,05,15,09,38,25.20
2023,05,15,09,39,25.20
2023,05,15,09,40,25.20
2023,05,15,09,41,25.20
2023,05,15,09,42,25.30
2023,05,15,09,43,25.50
2023,05,15,09,44,25.60
2023,05,15,09,45,25.70
2023,05,15,09,46,25.70
2023,05,15,09,47,25.80
2023,05,15,09,48,25.80
2023,05,15,09,49,25.80
2023,05,15,09,50,25.80
2023,05,15,09,51,25.90
2023,05,15,09,52,25.90
2023,05,15,09,53,25.80
2023,05,15,09,54,25.80
2023,05,15,09,55,25.70
2023,05,15,09,56,25.70
2023,05,15,09,57,25.70
2023,05,15,09,58,25.60
2023,05,15,09,59,25.40
2023,05,15,10,00,25.20
2023,05,15,10,01,25.00
2023,05,15,10,02,24.90
2023,05,15,10,03,24.70
2023,05,15,10,04,24.60
2023,05,15,10,05,24.50
2023,05,15,10,06,24.50
2023,05,15,10,07,24.40
2023,05,15,10,08,24.40
2023,05,15,10,09,24.40
2023,05,15,10,10,24.50
2023,05,15,10,11,24.60
2023,05,15,10,12,24.60
2023,05,15,10,13,24.60
2023,05,15,10,14,24.60
2023,05,15,10,15,24.70
2023,05,15,10,16,24.70
2023,05,15,10,17,24.70
2023,05,15,10,18,24.70
2023,05,15,10,19,24.70
2023,05,15,10,20,24.80
2023,05,15,10,21,24.90
2023,05,15,10,22,25.00
2023,05,15,10,23,25.00
2023,05,15,10,24,25.00
2023,05,15,10,25,25.00
2023,05,15,10,26,25.10
2023,05,15,10,27,25.20
2023,05,15,10,28,25.40
2023,05,15,10,29,25.50
2023,05,15,10,30,25.70
2023,05,15,10,31,25.90
2023,05,15,10,32,26.00
2023,05,15,10,33,26.10
2023,05,15,10,34,26.20
2023,05,15,10,35,26.20
2023,05,15,10,36,26.30
2023,05,15,10,37,26.40
2023,05,15,10,38,26.40
2023,05,15,10,39,26.40
2023,05,15,10,40,26.40
2023,05,15,10,41,26.40
2023,05,15,10,42,26.40
2023,05,15,10,43,26.30
2023,05,15,10,44,26.30
2023,05,15,10,45,26.40
2023,05,15,10,46,26.40
2023,05,15,10,47,26.30
2023,05,15,10,48,26.20
2023,05,15,10,49,26.20
2023,05,15,10,50,26.30
2023,05,15,10,51,26.40
2023,05,15,10,52,26.50
2023,05,15,10,53,26.70
2023,05,15,10,54,26.90
2023,05,15,10,55,27.10
2023,05,15,10,56,27.20
2023,05,15,10,57,27.30
2023,05,15,10,58,27.30
2023,05,15,10,59,27.40
2023,05,15,11,00,27.40
2023,05,15,11,01,27.30
2023,05,15,11,02,27.20
2023,05,15,11,03,27.10
2023,05,15,11,04,27.00
2023,05,15,11,05,27.00
2023,05,15,11,06,26.90
2023,05,15,11,07,26.90
2023,05,15,11,08,26.80
2023,05,15,11,09,26.80
2023,05,15,11,10,26.80
2023,05,15,11,11,26.80
2023,05,15,11,12,26.90
2023,05,15,11,13,26.90
2023,05,15,11,14,27.00
2023,05,15,11,15,27.10
2023,05,15,11,16,27.10
2023,05,15,11,17,27.20
2023,05,15,11,18,27.20
2023,05,15,11,19,27.30
2023,05,15,11,20,27.40
2023,05,15,11,21,27.50
2023,05,15,11,22,27.70
2023,05,15,11,23,27.80
2023,05,15,11,24,27.90
2023,05,15,11,25,27.90
2023,05,15,11,26,27.90
2023,05,15,11,27,27.90
2023,05,15,11,28,28.00
2023,05,15,11,29,28.00
2023,05,15,11,30,28.00
2023,05,15,11,31,28.00
2023,05,15,11,32,28.10
2023,05,15,11,33,28.10
2023,05,15,11,34,28.10
2023,05,15,11,35,28.00
2023,05,15,11,36,28.00
2023,05,15,11,37,28.00
2023,05,15,11,38,27.90
2023,05,15,11,39,28.00
2023,05,15,11,40,28.00
2023,05,15,11,41,28.10
2023,05,15,11,42,28.10
2023,05,15,11,43,28.10
2023,05,15,11,44,28.10
2023,05,15,11,45,28.10
2023,05,15,11,46,28.20
2023,05,15,11,47,28.30
2023,05,15,11,48,28.40
2023,05,15,11,49,28.50
2023,05,15,11,50,28.50
2023,05,15,11,51,28.50
2023,05,15,11,52,28.50
2023,05,15,11,53,28.40
2023,05,15,11,54,28.50
2023,05,15,11,55,28.50
2023,05,15,11,56,28.40
2023,05,15,11,57,28.40
2023,05,15,11,58,28.50
2023,05,15,11,59,28.50
2023,05,15,12,00,28.60
2023,05,15,12,01,28.60
2023,05,15,12,02,28.50
2023,05,15,12,03,28.40
2023,05,15,12,04,28.40
2023,05,15,12,05,28.50
2023,05,15,12,06,28.60
2023,05,15,12,07,28.60
2023,05,15,12,08,28.70
2023,05,15,12,09,28.80
2023,05,15,12,10,28.80
2023,05,15,12,11,28.80
2023,05,15,12,12,28.90
2023,05,15,12,13,29.00
2023,05,15,12,14,29.10
2023,05,15,12,15,29.20
2023,05,15,12,16,29.30
2023,05,15,12,17,29.40
2023,05,15,12,18,29.50
2023,05,15,12,19,29.50
2023,05,15,12,20,29.50
2023,05,15,12,21,29.50
2023,05,15,12,22,29.30
2023,05,15,12,23,29.30
2023,05,15,12,24,29.30
2023,05,15,12,25,29.40
2023,05,15,12,26,29.40
2023,05,15,12,27,29.50
2023,05,15,12,28,29.50
2023,05,15,12,29,29.60
2023,05,15,12,30,29.80
2023,05,15,12,31,29.90
2023,05,15,12,32,29.90
2023,05,15,12,33,29.80
2023,05,15,12,34,29.80
2023,05,15,12,35,29.80
2023,05,15,12,36,29.80
2023,05,15,12,37,29.70
2023,05,15,12,38,29.60
2023,05,15,12,39,29.60
2023,05,15,12,40,29.60
2023,05,15,12,41,29.60
2023,05,15,12,42,29.70
2023,05,15,12,43,29.80
2023,05,15,12,44,29.90
2023,05,15,12,45,29.90
2023,05,15,12,46,29.90
2023,05,15,12,47,29.70
2023,05,15,12,48,29.60
2023,05,15,12,49,29.50
2023,05,15,12,50,29.40
2023,05,15,12,51,29.40
2023,05,15,12,52,29.40
2023,05,15,12,53,29.50
2023,05,15,12,54,29.60
2023,05,15,12,55,29.70
2023,05,15,12,56,29.80
2023,05,15,12,57,29.90
2023,05,15,12,58,30.00
2023,05,15,12,59,30.20
2023,05,15,13,00,30.30
2023,05,15,13,01,30.40
2023,05,15,13,02,30.40
2023,05,15,13,03,30.40
2023,05,15,13,04,30.30
2023,05,15,13,05,30.30
2023,05,15,13,06,30.30
2023,05,15,13,07,30.20
2023,05,15,13,08,30.10
2023,05,15,13,09,30.00
2023,05,15,13,10,29.90
2023,05,15,13,11,29.90
2023,05,15,13,12,29.90
2023,05,15,13,13,29.80
2023,05,15,13,14,29.80
2023,05,15,13,15,29.80
2023,05,15,13,16,29.70
2023,05,15,13,17,29.80
2023,05,15,13,18,29.80
2023,05,15,13,19,29.80
2023,05,15,13,20,29.80
2023,05,15,13,21,29.90
2023,05,15,13,22,30.00
2023,05,15,13,23,30.10
2023,05,15,13,24,30.30
2023,05,15,13,25,30.30
2023,05,15,13,26,30.30
2023,05,15,13,27,30.40
2023,05,15,13,28,30.30
2023,05,15,13,29,30.30
2023,05,15,13,30,30.30
2023,05,15,13,31,30.30
2023,05,15,13,32,30.30
2023,05,15,13,33,30.30
2023,05,15,13,34,30.30
2023,05,15,13,35,30.20
2023,05,15,13,36,30.20
2023,05,15,13,37,30.20
2023,05,15,13,38,30.20
2023,05,15,13,39,30.20
2023,05,15,13,40,30.20
2023,05,15,13,41,30.30
2023,05,15,13,42,30.30
2023,05,15,13,43,30.40
2023,05,15,13,44,30.40
2023,05,15,13,45,30.50
2023,05,15,13,46,30.60
2023,05,15,13,47,30.70
2023,05,15,13,48,30.70
2023,05,15,13,49,30.80
2023,05,15,13,50,30.80
2023,05,15,13,51,30.80
2023,05,15,13,52,30.80
2023,05,15,13,53,30.80
2023,05,15,13,54,30.90
2023,05,15,13,55,30.90
2023,05,15,13,56,30.80
2023,05,15,13,57,30.80
2023,05,15,13,58,30.80
2023,05,15,13,59,30.70
2023,05,15,14,00,30.70
2023,05,15,14,01,30.60
2023,05,15,14,02,30.50
2023,05,15,14,03,30.50
2023,05,15,14,04,30.40
2023,05,15,14,05,30.40
2023,05,15,14,06,30.40
2023,05,15,14,07,30.40
2023,05,15,14,08,30.50
2023,05,15,14,09,30.60
2023,05,15,14,10,30.70
2023,05,15,14,11,30.80
2023,05,15,14,12,30.90
2023,05,15,14,13,30.90
2023,05,15,14,14,30.90
2023,05,15,14,15,30.90
2023,05,15,14,16,30.90
2023,05,15,14,17,30.90
2023,05,15,14,18,30.90
2023,05,15,14,19,30.80
2023,05,15,14,20,30.70
2023,05,15,14,21,30.60
2023,05,15,14,22,30.30
2023,05,15,14,23,30.10
2023,05,15,14,24,30.00
2023,05,15,14,25,29.90
2023,05,15,14,26,29.80
2023,05,15,14,27,29.80
2023,05,15,14,28,29.70
2023,05,15,14,29,29.60
2023,05,15,14,30,29.60
2023,05,15,14,31,29.60
2023,05,15,14,32,29.40
2023,05,15,14,33,29.30
2023,05,15,14,34,29.20
2023,05,15,14,35,29.10
2023,05,15,14,36,29.10
2023,05,15,14,37,29.10
2023,05,15,14,38,29.10
2023,05,15,14,39,29.00
2023,05,15,14,40,29.00
2023,05,15,14,41,29.00
2023,05,15,14,42,28.90
2023,05,15,14,43,28.80
2023,05,15,14,44,28.70
2023,05,15,14,45,28.70
2023,05,15,14,46,28.70
2023,05,15,14,47,28.80
2023,05,15,14,48,28.80
2023,05,15,14,49,28.70
2023,05,15,14,50,28.60
2023,05,15,14,51,28.60
2023,05,15,14,52,28.60
2023,05,15,14,53,28.60
2023,05,15,14,54,28.60
2023,05,15,14,55,28.60
2023,05,15,14,56,28.70
2023,05,15,14,57,28.70
2023,05,15,14,58,28.70
2023,05,15,14,59,28.80
2023,05,15,15,00,28.80
2023,05,15,15,01,28.80
2023,05,15,15,02,28.90
2023,05,15,15,03,29.00
2023,05,15,15,04,29.00
2023,05,15,15,05,29.10
2023,05,15,15,06,29.10
2023,05,15,15,07,29.10
2023,05,15,15,08,29.10
2023,05,15,15,09,29.20
2023,05,15,15,10,29.20
2023,05,15,15,11,29.20
2023,05,15,15,12,29.20
2023,05,15,15,13,29.20
2023,05,15,15,14,29.20
2023,05,15,15,15,29.20
2023,05,15,15,16,29.20
2023,05,15,15,17,29.10
2023,05,15,15,18,29.00
2023,05,15,15,19,29.00
2023,05,15,15,20,28.90
2023,05,15,15,21,28.80
2023,05,15,15,22,28.80
2023,05,15,15,23,28.70
2023,05,15,15,24,28.80
2023,05,15,15,25,28.80
2023,05,15,15,26,28.80
2023,05,15,15,27,28.80
2023,05,15,15,28,28.80
2023,05,15,15,29,28.80
2023,05,15,15,30,28.80
2023,05,15,15,31,28.80
2023,05,15,15,32,28.70
2023,05,15,15,33,28.80
2023,05,15,15,34,28.80
2023,05,15,15,35,28.70
2023,05,15,15,36,28.70
2023,05,15,15,37,28.70
2023,05,15,15,38,28.80
2023,05,15,15,39,28.80
2023,05,15,15,40,28.80
2023,05,15,15,41,28.80
2023,05,15,15,42,28.90
2023,05,15,15,43,28.90
2023,05,15,15,44,29.00
2023,05,15,15,45,29.10
2023,05,15,15,46,29.10
2023,05,15,15,47,29.20
2023,05,15,15,48,29.20
2023,05,15,15,49,29.10
2023,05,15,15,50,29.10
2023,05,15,15,51,29.10
2023,05,15,15,52,29.20
2023,05,15,15,53,29.20
2023,05,15,15,54,29.20
2023,05,15,15,55,29.20
2023,05,15,15,56,29.20
2023,05,15,15,57,29.10
2023,05,15,15,58,29.10
2023,05,15,15,59,29.20
2023,05,15,16,00,29.20
2023,05,15,16,01,29.20
2023,05,15,16,02,29.20
2023,05,15,16,03,29.30
2023,05,15,16,04,29.30
2023,05,15,16,05,29.30
2023,05,15,16,06,29.30
2023,05,15,16,07,29.30
2023,05,15,16,08,29.30
2023,05,15,16,09,29.30
2023,05,15,16,10,29.30
2023,05,15,16,11,29.20
2023,05,15,16,12,29.20
2023,05,15,16,13,29.30
2023,05,15,16,14,29.30
2023,05,15,16,15,29.30
2023,05,15,16,16,29.30
2023,05,15,16,17,29.20
2023,05,15,16,18,29.20
2023,05,15,16,19,29.20
2023,05,15,16,20,29.20
2023,05,15,16,21,29.20
2023,05,15,16,22,29.20
2023,05,15,16,23,29.20
2023,05,15,16,24,29.20
2023,05,15,16,25,29.20
2023,05,15,16,26,29.30
2023,05,15,16,27,29.30
2023,05,15,16,28,29.30
2023,05,15,16,29,29.40
2023,05,15,16,30,29.50
2023,05,15,16,31,29.60
2023,05,15,16,32,29.70
2023,05,15,16,33,29.80
2023,05,15,16,34,29.90
2023,05,15,16,35,29.90
2023,05,15,16,36,30.10
2023,05,15,16,37,30.10
2023,05,15,16,38,30.20
2023,05,15,16,39,30.30
2023,05,15,16,40,30.30
2023,05,15,16,41,30.40
2023,05,15,16,42,30.40
2023,05,15,16,43,30.30
2023,05,15,16,44,30.30
2023,05,15,16,45,30.30
2023,05,15,16,46,30.20
2023,05,15,16,47,30.20
2023,05,15,16,48,30.10
2023,05,15,16,49,30.10
2023,05,15,16,50,30.00
2023,05,15,16,51,30.00
2023,05,15,16,52,29.90
2023,05,15,16,53,29.90
2023,05,15,16,54,29.90
2023,05,15,16,55,29.90
2023,05,15,16,56,30.00
2023,05,15,16,57,30.00
2023,05,15,16,58,30.10
2023,05,15,16,59,30.10
2023,05,15,17,00,30.10
2023,05,15,17,01,30.20
2023,05,15,17,02,30.20
2023,05,15,17,03,30.20
2023,05,15,17,04,30.20
2023,05,15,17,05,30.20
2023,05,15,17,06,30.20
2023,05,15,17,07,30.30
2023,05,15,17,08,30.30
2023,05,15,17,09,30.30
2023,05,15,17,10,30.40
2023,05,15,17,11,30.40
2023,05,15,17,12,30.50
2023,05,15,17,13,30.50
2023,05,15,17,14,30.60
2023,05,15,17,15,30.60
2023,05,15,17,16,30.60
2023,05,15,17,17,30.70
2023,05,15,17,18,30.70
2023,05,15,17,19,30.70